WZZ335 LIEO-LIPZ

Flight info

Callsign WZZ335
Flight time N/A
Altitude 32000
Route BATOX DCT DEDOM DCT NUKNI DCT BIKTU DCT PELEG DCT SUKOM Q125 NIMUM Z43 OTGIG
Aircraft A320/M-SDE3FGHIRWY/LB1

Departure

Time 2026-04-28 18:48
Airport Olbia Costa Smeralda Airport (LIEO)

Arrival

Time N/A
Airport Venice Marco Polo Airport (LIPZ)
Time Latitude Longitude Altitude Speed Heading
2026-04-28 18:37 40.90179 9.51529 34 ft 0 kts 325°
2026-04-28 18:40 40.90168 9.51540 34 ft 4 kts 316°
2026-04-28 18:40 40.90151 9.51567 33 ft 4 kts 293°
2026-04-28 18:41 40.90145 9.51601 32 ft 4 kts 264°
2026-04-28 18:41 40.90149 9.51624 34 ft 0 kts 236°
2026-04-28 18:43 40.90140 9.51606 34 ft 5 kts 236°
2026-04-28 18:43 40.90107 9.51542 34 ft 11 kts 236°
2026-04-28 18:44 40.90038 9.51494 34 ft 14 kts 160°
2026-04-28 18:44 40.89866 9.51373 34 ft 19 kts 235°
2026-04-28 18:44 40.89781 9.51212 34 ft 23 kts 235°
2026-04-28 18:45 40.89685 9.51027 33 ft 25 kts 235°
2026-04-28 18:45 40.89582 9.50832 34 ft 26 kts 235°
2026-04-28 18:45 40.89477 9.50632 34 ft 26 kts 235°
2026-04-28 18:45 40.89391 9.50471 34 ft 12 kts 232°
2026-04-28 18:46 40.89375 9.50452 34 ft 0 kts 206°
2026-04-28 18:46 40.89355 9.50443 34 ft 7 kts 196°
2026-04-28 18:46 40.89290 9.50469 34 ft 14 kts 129°
2026-04-28 18:46 40.89274 9.50619 34 ft 19 kts 75°
2026-04-28 18:47 40.89321 9.50718 34 ft 0 kts 54°
2026-04-28 18:47 40.89381 9.50829 33 ft 46 kts 56°
2026-04-28 18:47 40.89694 9.51431 34 ft 109 kts 56°
2026-04-28 18:47 40.90220 9.52434 44 ft 154 kts 56°
2026-04-28 18:48 40.90822 9.53600 617 ft 152 kts 57°
2026-04-28 18:48 40.91425 9.54751 1188 ft 153 kts 57°
2026-04-28 18:48 40.92062 9.55958 1531 ft 170 kts 57°
2026-04-28 18:48 40.92784 9.57324 1795 ft 192 kts 56°
2026-04-28 18:49 40.93594 9.58854 2059 ft 214 kts 57°
2026-04-28 18:49 40.94179 9.59953 2274 ft 225 kts 56°
2026-04-28 18:49 40.95455 9.62346 2991 ft 244 kts 55°
2026-04-28 18:49 40.96437 9.64183 3875 ft 246 kts 55°
2026-04-28 18:50 40.97431 9.66043 4765 ft 249 kts 54°
2026-04-28 18:50 40.98439 9.67931 5600 ft 254 kts 54°
2026-04-28 18:50 40.99463 9.69922 6176 ft 272 kts 56°
2026-04-28 18:50 41.00510 9.72071 6846 ft 282 kts 57°
2026-04-28 18:51 41.01566 9.74284 7661 ft 286 kts 57°
2026-04-28 18:51 41.02632 9.76534 8496 ft 290 kts 57°
2026-04-28 18:51 41.03712 9.78809 9346 ft 293 kts 57°
2026-04-28 18:51 41.04806 9.81109 10151 ft 297 kts 57°
2026-04-28 18:52 41.05924 9.83456 10702 ft 310 kts 57°
2026-04-28 18:52 41.07123 9.85959 10915 ft 333 kts 57°
2026-04-28 18:52 41.08409 9.88638 11060 ft 356 kts 57°
2026-04-28 18:52 41.09780 9.91492 11318 ft 373 kts 57°
2026-04-28 18:53 41.11185 9.94425 11903 ft 379 kts 57°
2026-04-28 18:53 41.12610 9.97399 12560 ft 383 kts 57°
2026-04-28 18:53 41.14042 10.00398 13204 ft 387 kts 57°
2026-04-28 18:53 41.15468 10.03394 13843 ft 390 kts 56°
2026-04-28 18:54 41.16925 10.06459 14401 ft 394 kts 57°
2026-04-28 18:54 41.18411 10.09524 14950 ft 397 kts 53°